| time (UTC) | temp F | wind direction | speed knots | gust knots | rain 1hr in | rain 24hr in | rain mn in | humidity % | barometer mb |
| 20260506115034 | 53 | 22 | 1.7 | 2.6 | 0.00 | 0.00 | 0.00 | 50 | 1015.0 |
| 20260506114035 | 55 | 31 | 1.7 | 2.6 | 0.00 | 0.00 | 0.00 | 48 | 1014.9 |
| 20260506113034 | 55 | 205 | 1.7 | 4.3 | 0.00 | 0.00 | 0.00 | 54 | 1015.0 |
| 20260506110031 | 54 | 57 | 0.9 | 1.7 | 0.00 | 0.00 | 0.00 | 49 | 1015.0 |
| 20260506105034 | 53 | 25 | 1.7 | 2.6 | 0.00 | 0.00 | 0.00 | 48 | 1015.1 |
| 20260506104034 | 52 | 50 | 1.7 | 2.6 | 0.00 | 0.00 | 0.00 | 53 | 1015.2 |
| 20260506103034 | 52 | 38 | 1.7 | 4.3 | 0.00 | 0.00 | 0.00 | 55 | 1015.2 |
| 20260506102034 | 53 | 61 | 1.7 | 4.3 | 0.00 | 0.00 | 0.00 | 56 | 1015.2 |
| 20260506101034 | 53 | 27 | 1.7 | 4.3 | 0.00 | 0.00 | 0.00 | 53 | 1015.3 |
| 20260506100031 | 52 | 35 | 1.7 | 4.3 | 0.00 | 0.00 | 0.00 | 53 | 1015.3 |
| 20260506095034 | 52 | 58 | 1.7 | 4.3 | 0.00 | 0.00 | 0.00 | 55 | 1015.4 |
| 20260506094035 | 52 | 47 | 1.7 | 4.3 | 0.00 | 0.00 | 0.00 | 55 | 1015.5 |
| 20260506092035 | 52 | 46 | 1.7 | 4.3 | 0.00 | 0.00 | 0.00 | 54 | 1015.5 |
| 20260506091034 | 51 | 23 | 1.7 | 4.3 | 0.00 | 0.00 | 0.00 | 57 | 1015.7 |
| 20260506090031 | 51 | 52 | 1.7 | 2.6 | 0.00 | 0.00 | 0.00 | 60 | 1015.8 |
| 20260506085034 | 51 | 24 | 1.7 | 2.6 | 0.00 | 0.00 | 0.00 | 55 | 1015.6 |
| 20260506084034 | 51 | 41 | 1.7 | 4.3 | 0.00 | 0.00 | 0.00 | 57 | 1015.8 |
| 20260506083035 | 53 | 37 | 1.7 | 2.6 | 0.00 | 0.00 | 0.00 | 53 | 1015.9 |
| 20260506082034 | 51 | 73 | 0.9 | 1.7 | 0.00 | 0.00 | 0.00 | 55 | 1015.8 |
| 20260506081034 | 50 | 86 | 0.9 | 2.6 | 0.00 | 0.00 | 0.00 | 57 | 1015.9 |
| 20260506073033 | 48 | 52 | 1.7 | 4.3 | 0.00 | 0.00 | 0.00 | 60 | 1016.0 |
| 20260506072032 | 48 | 95 | 0.9 | 2.6 | 0.00 | 0.00 | 0.00 | 59 | 1016.1 |
| 20260506071035 | 48 | 54 | 0.9 | 4.3 | 0.00 | 0.00 | 0.00 | 60 | 1016.1 |
| 20260506062033 | 48 | 30 | 0.9 | 4.3 | 0.00 | 0.00 | 0.00 | 59 | 1015.8 |
| 20260506061033 | 48 | 50 | 1.7 | 6.1 | 0.00 | 0.00 | 0.00 | 59 | 1015.8 |
| 20260506051034 | 47 | 127 | 0.9 | 5.2 | 0.00 | 0.00 | 0.00 | 67 | 1015.8 |
| 20260506045033 | 47 | 76 | 1.7 | 4.3 | 0.00 | 0.00 | 0.00 | 58 | 1015.9 |
| 20260506044033 | 46 | 59 | 0.9 | 2.6 | 0.00 | 0.00 | 0.00 | 61 | 1015.9 |
| 20260506042035 | 46 | 93 | 0.9 | 2.6 | 0.00 | 0.00 | 0.00 | 63 | 1016.1 |
| 20260506041034 | 46 | 91 | 1.7 | 4.3 | 0.00 | 0.00 | 0.00 | 66 | 1016.2 |
| 20260506040032 | 47 | 73 | 1.7 | 7.0 | 0.00 | 0.00 | 0.00 | 66 | 1016.3 |
| 20260506035033 | 47 | 84 | 3.5 | 7.0 | 0.00 | 0.00 | 0.00 | 65 | 1016.2 |
| 20260506034033 | 46 | 38 | 1.7 | 4.3 | 0.00 | 0.00 | 0.00 | 61 | 1016.3 |
| 20260506033033 | 47 | 42 | 1.7 | 5.2 | 0.00 | 0.00 | 0.00 | 64 | 1016.3 |
| 20260506032032 | 47 | 82 | 2.6 | 6.1 | 0.00 | 0.00 | 0.00 | 62 | 1016.3 |
| 20260506031034 | 47 | 51 | 1.7 | 7.0 | 0.00 | 0.00 | 0.00 | 65 | 1016.3 |
| 20260506025032 | 47 | 53 | 2.6 | 7.8 | 0.00 | 0.00 | 0.00 | 64 | 1016.5 |
| 20260506024033 | 47 | 112 | 5.2 | 11.3 | 0.00 | 0.00 | 0.00 | 60 | 1016.2 |
| 20260506023033 | 47 | 61 | 4.3 | 8.7 | 0.00 | 0.00 | 0.00 | 64 | 1016.3 |
| 20260506022033 | 47 | 51 | 4.3 | 8.7 | 0.00 | 0.00 | 0.00 | 64 | 1016.4 |
| 20260506021032 | 47 | 84 | 4.3 | 7.0 | 0.00 | 0.00 | 0.00 | 66 | 1016.4 |
| 20260506020031 | 47 | 64 | 4.3 | 7.0 | 0.00 | 0.00 | 0.00 | 65 | 1016.5 |
| 20260506015033 | 47 | 65 | 2.6 | 6.1 | 0.00 | 0.00 | 0.00 | 68 | 1016.5 |
| 20260506012033 | 47 | 62 | 2.6 | 5.2 | 0.00 | 0.00 | 0.00 | 66 | 1016.8 |
| 20260506011032 | 47 | 49 | 2.6 | 5.2 | 0.00 | 0.00 | 0.00 | 68 | 1017.0 |
| 20260506010032 | 47 | 38 | 2.6 | 5.2 | 0.00 | 0.00 | 0.00 | 73 | 1016.9 |
| 20260506005032 | 47 | 61 | 2.6 | 5.2 | 0.00 | 0.00 | 0.00 | 73 | 1016.8 |
| 20260506004033 | 48 | 71 | 2.6 | 6.1 | 0.00 | 0.00 | 0.00 | 72 | 1016.9 |
| 20260506002033 | 48 | 64 | 2.6 | 4.3 | 0.00 | 0.00 | 0.00 | 76 | 1016.9 |
| 20260506001033 | 48 | 67 | 1.7 | 5.2 | 0.00 | 0.00 | 0.00 | 77 | 1017.0 |
| 20260506000032 | 48 | 57 | 1.7 | 5.2 | 0.00 | 0.00 | 0.00 | 76 | 1017.2 |
| 20260505235033 | 48 | 76 | 1.7 | 4.3 | 0.00 | 0.00 | 0.00 | 77 | 1017.3 |
| 20260505234033 | 48 | 50 | 2.6 | 5.2 | 0.00 | 0.00 | 0.00 | 76 | 1017.4 |
| 20260505233033 | 48 | 72 | 2.6 | 6.1 | 0.00 | 0.00 | 0.00 | 76 | 1017.6 |
| 20260505232032 | 49 | 71 | 2.6 | 6.1 | 0.00 | 0.00 | 0.00 | 75 | 1017.5 |
| 20260505230031 | 49 | 50 | 2.6 | 7.8 | 0.00 | 0.00 | 0.00 | 75 | 1017.5 |
| 20260505225109 | 49 | 46 | 3.5 | 7.8 | 0.00 | 0.00 | 0.00 | 74 | 1017.5 |
| 20260505223024 | 49 | 82 | 4.3 | 6.1 | 0.00 | 0.00 | 0.00 | 70 | 1017.6 |
| 20260505222024 | 49 | 62 | 3.5 | 7.0 | 0.00 | 0.00 | 0.00 | 71 | 1017.6 |
| 20260505220023 | 50 | 41 | 2.6 | 7.0 | 0.00 | 0.00 | 0.00 | 73 | 1017.6 |
| 20260505215025 | 50 | 338 | 2.6 | 6.1 | 0.00 | 0.00 | 0.00 | 72 | 1017.7 |
| 20260505214025 | 50 | 53 | 3.5 | 6.1 | 0.00 | 0.00 | 0.00 | 71 | 1017.7 |
| 20260505213026 | 50 | 60 | 2.6 | 6.1 | 0.00 | 0.00 | 0.00 | 71 | 1017.8 |
| 20260505212025 | 50 | 69 | 1.7 | 5.2 | 0.00 | 0.00 | 0.00 | 71 | 1017.6 |
| 20260505211026 | 50 | 142 | 2.6 | 5.2 | 0.00 | 0.00 | 0.00 | 70 | 1017.8 |
| 20260505210025 | 50 | 133 | 2.6 | 5.2 | 0.00 | 0.00 | 0.00 | 71 | 1017.8 |
| 20260505205028 | 50 | 208 | 2.6 | 4.3 | 0.00 | 0.00 | 0.00 | 70 | 1017.6 |
| 20260505204024 | 50 | 130 | 2.6 | 5.2 | 0.00 | 0.00 | 0.00 | 70 | 1017.7 |
| 20260505203024 | 50 | 228 | 2.6 | 5.2 | 0.00 | 0.00 | 0.00 | 70 | 1017.7 |
| 20260505202028 | 50 | 232 | 2.6 | 5.2 | 0.00 | 0.00 | 0.00 | 69 | 1017.6 |
| 20260505201025 | 50 | 231 | 2.6 | 5.2 | 0.00 | 0.00 | 0.00 | 68 | 1017.8 |
| 20260505200022 | 50 | 223 | 2.6 | 4.3 | 0.00 | 0.00 | 0.00 | 70 | 1017.6 |
| 20260505195024 | 50 | 207 | 2.6 | 4.3 | 0.00 | 0.00 | 0.00 | 69 | 1017.6 |
| 20260505194024 | 51 | 201 | 1.7 | 4.3 | 0.00 | 0.00 | 0.00 | 69 | 1017.6 |
| 20260505192026 | 52 | 215 | 2.6 | 5.2 | 0.00 | 0.00 | 0.00 | 67 | 1017.6 |
| 20260505191024 | 52 | 190 | 3.5 | 6.1 | 0.00 | 0.00 | 0.00 | 66 | 1017.5 |
| 20260505190022 | 52 | 203 | 4.3 | 6.1 | 0.00 | 0.00 | 0.00 | 66 | 1017.5 |
| 20260505184023 | 53 | 223 | 3.5 | 5.2 | 0.00 | 0.00 | 0.00 | 65 | 1017.6 |
| 20260505183024 | 53 | 243 | 4.3 | 6.1 | 0.00 | 0.00 | 0.00 | 65 | 1017.5 |
| 20260505182025 | 53 | 235 | 4.3 | 6.1 | 0.00 | 0.00 | 0.00 | 64 | 1017.5 |
| 20260505181024 | 54 | 243 | 4.3 | 7.0 | 0.00 | 0.00 | 0.00 | 63 | 1017.5 |
| 20260505175025 | 55 | 206 | 3.5 | 6.1 | 0.00 | 0.00 | 0.00 | 60 | 1017.6 |
| 20260505174024 | 55 | 246 | 3.5 | 6.1 | 0.00 | 0.00 | 0.00 | 60 | 1017.8 |
| 20260505173023 | 55 | 255 | 2.6 | 6.1 | 0.00 | 0.00 | 0.00 | 60 | 1017.7 |
| 20260505172023 | 55 | 240 | 4.3 | 7.0 | 0.00 | 0.00 | 0.00 | 58 | 1017.6 |
| 20260505171022 | 55 | 256 | 4.3 | 7.0 | 0.00 | 0.00 | 0.00 | 60 | 1017.7 |
| 20260505165023 | 55 | 278 | 5.2 | 7.0 | 0.00 | 0.00 | 0.00 | 59 | 1017.8 |
| 20260505164023 | 55 | 286 | 4.3 | 10.4 | 0.00 | 0.00 | 0.00 | 58 | 1017.7 |
| 20260505162024 | 56 | 280 | 5.2 | 7.8 | 0.00 | 0.00 | 0.00 | 59 | 1017.8 |
| 20260505161024 | 55 | 267 | 3.5 | 7.0 | 0.00 | 0.00 | 0.00 | 60 | 1017.6 |
| 20260505153023 | 58 | 264 | 3.5 | 7.0 | 0.00 | 0.00 | 0.00 | 57 | 1017.9 |
| 20260505152023 | 55 | 266 | 3.5 | 7.0 | 0.00 | 0.00 | 0.00 | 60 | 1017.9 |
| 20260505151023 | 57 | 286 | 4.3 | 7.8 | 0.00 | 0.00 | 0.00 | 56 | 1018.0 |
| 20260505125027 | 57 | 213 | 2.6 | 4.3 | 0.00 | 0.00 | 0.00 | 59 | 1018.4 |
| 20260505124023 | 57 | 203 | 1.7 | 5.2 | 0.00 | 0.00 | 0.00 | 58 | 1018.3 |
| 20260505123022 | 56 | 231 | 2.6 | 6.1 | 0.00 | 0.00 | 0.00 | 61 | 1018.4 |
| 20260505122022 | 55 | 211 | 2.6 | 4.3 | 0.00 | 0.00 | 0.00 | 61 | 1018.4 |
| 20260505120021 | 53 | 199 | 1.7 | 4.3 | 0.00 | 0.00 | 0.00 | 66 | 1018.4 |